Timiskaming Regional Airport
CYXR : now visible

Airfield :











YOU CAN JOIN US ON...

 
LOGIN :

Register | Disclaimer

   EN    FR    IT 

 









Legend :    VFR   Marginal VFR   IFR   Intensive IFR   Very Intensive IFR
Visi :
Ceiling :
>= 8 km
>= 3000ft
5 to 8 km
1000 to 3000 ft
1500m to 5 km
500 to 1000 ft
800 to 1500m
200 to 500 ft
< 800m
< 200 ft
Symbols :   Thunderstorms  Fog  Heavy snow  Heavy precipitations  Wind > 20 kt






- Airport Elevation : 798 ft
- IATA code : YXR


CYXR - Timiskaming Regional

CURRENT METAR :
  • 181900Z AUTO 00000KT 9SM BKN071 11/M03 A2978 RMK SLP092 DENSITY ALT 800FT

EXPIRED METARs :
  • 181813Z AUTO 29011KT 250V330 9SM BKN060 11/M03 A2978 RMK SLP093 DENSITY ALT 800FT
  • 181700Z AUTO VRB08KT 9SM FEW055 11/M02 A2980 RMK SLP101

TAF TAF CYXR
Valid from the 18 at 18:00 until the 19 at 00:00 UTC


181738Z 1818/1824 34005KT P6SM FEW050 RMK FCST BASED ON AUTO OBS. NXT FCST WILL BE ISSUED AT 191145Z
CZYZ FIR / North America



MET'MAP, your aeronautical weather chart ! - Copyright ORBIFLY December 2007 - Disclaimer

ORBIFLY MET'MAP TEAM :

Programming & Development : Alexandra Zaïnal
Concept & original design : Baudouin d'Aumeries
Assistance for programming : Marc-Olivier Méhu
Technical & hardware support : Manuel Goepfert

Contact : metmap@orbifly.com




SOURCES & CREDITS :

   NOAA       Earth
Advisory